Weather History for Annette Island, AK

Change the Weather History Date:

Tuesday, October 1, 2013

  Actual Average Record
Temperature  
Mean Temperature 48 °F 51 °F  
Max Temperature 50 °F 56 °F 67 °F (2003)
Min Temperature 46 °F 46 °F 32 °F (1996)
Degree Days  
Heating Degree Days 17 14  
Month to date heating degree days 17 14  
Since 1 July heating degree days 579 749  
Cooling Degree Days 0    
Month to date cooling degree days 0  
Year to date cooling degree days 22  
Moisture  
Dew Point 45 °F    
Average Humidity 0    
Maximum Humidity 0    
Minimum Humidity 0    
Precipitation  
Precipitation 0.10 in 0.39 in 2.24 in (1995)
Month to date precipitation 0.10 0.39  
Year to date precipitation 59.21 65.09  
Snow  
Snow 0.00 in 0.00 in T in (1993)
Month to date snowfall 0.0 0.0  
Since 1 July snowfall 0.0 0.0  
Since 1 September snowfall 0.0 0.0  
Snow Depth 0.00 in    
Sea Level Pressure  
Sea Level Pressure 29.76 in    
Wind  
Wind Speed 9 mph (ESE)    
Max Wind Speed 20 mph    
Max Gust Speed 26 mph    
Visibility 10 miles    
Events Rain    
T = Trace of Precipitation, MM = Missing Value Source: NWS Daily Summary

Daily Weather History Graph

Daily Weather History Graph

Search for Another Location

Airport:

Trip Planner

Search our weather history database for the weather conditions in past years. The results will help you decide how hot, cold, wet, or windy it might be!

Date:

Astronomy

Oct. 01, 2013 Rise Set
Actual Time 6:49 AM AKDT 6:20 PM AKDT
Civil Twilight 6:13 AM AKDT 6:56 PM AKDT
Nautical Twilight 5:31 AM AKDT 7:39 PM AKDT
Astronomical Twilight 4:47 AM AKDT 8:22 PM AKDT
Moon 3:03 AM AKDT (10/1) 4:50 PM AKDT (10/1)
Length of Visible Light 12h 43m
Length of Day
11h 31m
Waning Crescent, 11% of the Moon is Illuminated
Oct 1
Waning Crescent
Oct 4
New
Oct 11
First Quarter
Oct 18
Full
Oct 26
Last Quarter

Hourly Weather History & Observations

Time (AKDT) Temp. Dew Point Humidity Pressure Visibility Wind Dir Wind Speed Gust Speed Precip Events Conditions
12:53 AM 46.0 °F 46.0 °F 100% 29.57 in 10.0 mi Calm Calm - 0.01 in Rain Light Rain
1:53 AM 46.0 °F 45.0 °F 96% 29.60 in 10.0 mi Calm Calm - 0.00 in   Overcast
2:26 AM 46.4 °F 46.4 °F 100% 29.60 in 10.0 mi Calm Calm - N/A   Overcast
2:53 AM 48.9 °F 46.0 °F 90% 29.62 in 10.0 mi SE 5.8 mph - 0.01 in   Overcast
3:49 AM 48.2 °F 46.4 °F 93% 29.62 in 8.0 mi ESE 5.8 mph - 0.01 in Rain Light Rain
3:53 AM 48.0 °F 46.0 °F 93% 29.62 in 10.0 mi SE 4.6 mph - 0.01 in Rain Light Rain
4:05 AM 48.2 °F 44.6 °F 87% 29.62 in 10.0 mi ESE 8.1 mph - N/A   Overcast
4:53 AM 46.9 °F 46.0 °F 97% 29.64 in 7.0 mi ESE 6.9 mph - N/A   Overcast
5:53 AM 48.0 °F 46.0 °F 93% 29.65 in 10.0 mi Variable 5.8 mph - 0.00 in Rain Light Rain
6:53 AM 48.0 °F 46.0 °F 93% 29.66 in 10.0 mi SE 8.1 mph - 0.00 in Rain Light Rain
7:53 AM 48.0 °F 46.0 °F 93% 29.68 in 6.0 mi ESE 9.2 mph - 0.00 in   Overcast
8:53 AM 48.0 °F 46.0 °F 93% 29.69 in 7.0 mi ESE 9.2 mph 21.9 mph 0.01 in Rain Light Rain
9:53 AM 48.0 °F 46.0 °F 93% 29.71 in 10.0 mi ESE 11.5 mph - 0.01 in Rain Light Rain
10:53 AM 48.9 °F 46.0 °F 90% 29.73 in 10.0 mi SE 11.5 mph - 0.01 in Rain Light Rain
11:53 AM 50.0 °F 45.0 °F 83% 29.75 in 10.0 mi SE 16.1 mph 24.2 mph 0.01 in   Overcast
12:53 PM 50.0 °F 45.0 °F 83% 29.76 in 10.0 mi ESE 13.8 mph 24.2 mph 0.01 in   Overcast
1:53 PM 50.0 °F 45.0 °F 83% 29.78 in 10.0 mi ESE 9.2 mph - N/A   Overcast
2:53 PM 50.0 °F 45.0 °F 83% 29.79 in 10.0 mi ESE 11.5 mph 19.6 mph N/A   Overcast
3:53 PM 48.0 °F 45.0 °F 89% 29.81 in 10.0 mi ESE 9.2 mph - 0.00 in Rain Light Rain
4:53 PM 48.9 °F 46.0 °F 90% 29.81 in 10.0 mi SE 16.1 mph 26.5 mph 0.01 in   Overcast
5:53 PM 50.0 °F 45.0 °F 83% 29.84 in 10.0 mi SE 15.0 mph 24.2 mph N/A   Overcast
6:53 PM 48.9 °F 45.0 °F 86% 29.86 in 10.0 mi ESE 9.2 mph 19.6 mph N/A   Overcast
7:17 PM 48.2 °F 44.6 °F 87% 29.86 in 10.0 mi ESE 6.9 mph - N/A   Overcast
7:53 PM 48.9 °F 44.1 °F 83% 29.88 in 10.0 mi ESE 11.5 mph - N/A   Overcast
8:53 PM 48.9 °F 43.0 °F 80% 29.89 in 10.0 mi ESE 9.2 mph - N/A   Scattered Clouds
9:53 PM 48.9 °F 43.0 °F 80% 29.91 in 10.0 mi ESE 4.6 mph - N/A   Scattered Clouds
10:53 PM 50.0 °F 44.1 °F 80% 29.94 in 10.0 mi SE 5.8 mph - 0.01 in   Overcast
11:16 PM 50.0 °F 44.6 °F 82% 29.94 in 10.0 mi SE 6.9 mph - 0.01 in   Overcast
11:25 PM 50.0 °F 44.6 °F 82% 29.94 in 10.0 mi SE 4.6 mph - 0.01 in   Overcast
11:53 PM 48.9 °F 45.0 °F 86% 29.95 in 10.0 mi ESE 4.6 mph - 0.01 in   Overcast